星链-30150 (STARLINK-30150 )

导读 | 豆包AI

STARLINK-30150是美国星链计划的低轨通信卫星,于2023年8月11日发射入轨,隶属于SpaceX公司的Starlink星座。星链旨在为全球提供高速宽带互联网服务,该卫星加入后,进一步扩充了星座规模,提升了全球覆盖与服务能力,推动低轨卫星互联网布局完善,支撑偏远地区、移动场景等网络接入需求。

基本信息
目录编号:
57621
目录名称:
STARLINK-30150
国际标识:
2023-119V
轨道中心:
EARTH
卫星名称:
星链-30150
卫星全名:
星链-30150 (STARLINK-30150 )
卫星状态:
在轨 (已飞行993 天)
发射日期:
2023-08-11 UTC
国别 :
美国 (US)
星等 :
--
轨道信息
数据来源 国际轨道数据
星历时间: 2026-04-30T10:49:39+0800
12小时前
查看轨道信息
半长轴: 6863.616km
偏心率: 0.0000922
轨道倾角: 42.999°
近地点辐角 282.957°
升交点赤经 150.966°
平近点角 77.117°
近地点: 484.846km
远地点: 486.112km
周期: 94.317分钟
每日圈数: 15.26769
详细信息
固有亮度:
5
最大亮度:
0.3
卫星平台:
Starlink v2.0 mini
覆盖范围:
全球
运营商:
太空探索技术公司
运营商所在国:
美国
制造商(研发单位):
太空探索技术公司
制造商所在国:
美国
使用方式:
暂无
卫星简介
星链(Starlink)计划是由太空探索技术公司(SpaceX)提出的一个巨型低轨卫星互联网星座项目,计划在2019年至2024年间在太空搭建由约1.2万颗卫星组成的“星链”网络,其中1584颗将部署在地球上空550千米处的近地轨道,并从2020年开始工作。该卫星仍在工作。
2D轨道图
3D轨道图
轨道高度分析图
轨道倾角分析图
轨道综合分析图
查看轨道综合分析图